FLOCK 4P-1 (44814 NORAD) Tracking and Keplerian Element Data

This shows tracking and keplerian element data for the satellite.

Feedback or suggestion? Click here.




ElementValue
Catalog44814
NameFLOCK 4P-1
Epoch Orbit18171
Epoch Day63.18054104
Epoch Year2023
RAAN133.2974
Inclination97.3601
Eccentricity0.0003835
Argument of Perigee319.9782
Mean Anonmoly40.119
Mean Motion15.56695287
Decay Rate0.0032576
L11 44814U 19081L 23063.18054104 .00325760 00000+0 43912-2 0 9990
L22 44814 97.3601 133.2974 0003835 319.9782 40.1190 15.56695287181713



Live tracking and technical data element details for FLOCK 4P-1 (NORAD 44814). FLOCK 4P-1 can be tracked NOW for your location showing map with azimuth and elevation plus other details from your city location.







IsCatalogInMostPopularTable: catalog: 44814, numindb: 303
Update: records affected: 1



GetName: 44814 FLOCK 4P-1

Hit Count: updated at: Thu, 22 May 2025 03:48:38 GMT